www.pogodaiklimat.ru

Погода и климат >> Архив погоды >> Бангладеш >> Teknaf


ПОГОДА в Teknaf

  • Прогноз погоды в Teknaf
  • Монитор погоды в Teknaf
  • Климат города

АРХИВ ПОГОДЫ в Teknaf

Время (UTC), дата Ветер
(напр.,м/с)
 
Видим.   Явления Облачность Т
(С)
Тd
(С)
f
(%)
Тe
(С)
Тes
(С)
Комфортность P
(гПа)
Po
(гПа)
Тmin
(С)
Tmax
(С)
R
(мм)
R24
(мм)
S
(см)
06 8.08 СЗ 2 6000 м 8/5 540 м
[Sc diur, vesp As op]
+29.4 +25.0 77 +42 +48 опасность
перегрева
1003.8 1003.2
21 8.08 штиль 0 5000 м 8/5 540 м
[Sc diur, vesp As op]
+27.5 +26.0 92 +41 +41 опасность
перегрева
1003.8 1003.2
00 9.08 штиль 0 5000 м 8/5 540 м
[Sc diur, vesp As op]
+26.7 +25.0 90 +38 +38 очень
душно
1004.4 1003.8
03 9.08 штиль 0 6000 м 8/5 540 м
[Sc diur, vesp As op]
+31.5 +26.0 73 +47 +52 опасность
перегрева
1005.3 1004.7 +26.0
06 9.08 В 2 6000 м 5/3 540 м
[Sc diur, vesp As op]
+30.0 +25.0 75 +43 +55 опасность
перегрева
1005.3 1004.7
09 9.08 СВ 2 6000 м 5/3 540 м
[Sc diur, vesp As op]
+30.8 +24.0 67 +42 +49 опасность
перегрева
1002.9 1002.3
15 9.08 штиль 0 5000 м 8/3 540 м
[Sc diur, vesp As op]
+27.5 +25.0 86 +39 +39 очень
душно
1003.8 1003.2
18 9.08 штиль 0 5000 м 8/3 540 м
[Sc diur, vesp As op]
+27.0 +24.0 84 +37 +37 очень
душно
1004.1 1003.5
21 9.08 штиль 0 5000 м 8/3 540 м
[Sc diur, vesp As op]
+26.4 +24.0 87 +37 +37 очень
душно
1004.5 1003.9
00 10.08 штиль 0 5000 м 8/3 540 м
[Sc diur, vesp As op]
+26.8 +23.0 80 +36 +36 очень
душно
1003.4 1002.8
03 10.08 штиль 0 6000 м в посл. час дождь 10/4 540 м
[Sc diur, vesp As op]
+29.6 +25.0 76 +42 +45 опасность
перегрева
1004.1 1003.5 +25.8
06 10.08 В 2 6000 м {дождь} 5/3 540 м
[Sc diur, vesp As op]
+30.6 +26.0 77 +46 +59 опасность
перегрева
1003.9 1003.3 39
09 10.08 ЮВ 1 6000 м 5/3 540 м
[Sc diur, vesp As op]
+31.1 +24.0 66 +43 +50 опасность
перегрева
1001.8 1001.2
12 10.08 штиль 0 6000 м 8/4 540 м
[Sc diur, vesp As op]
+29.2 +24.0 74 +41 +41 опасность
перегрева
1001.6 1001.0 +32.7
15 10.08 штиль 0 5000 м 8/4 540 м
[Sc diur, vesp As op]
+29.0 +25.0 79 +42 +42 опасность
перегрева
1001.7 1001.1
21 10.08 штиль 0 5000 м 8/4 540 м
[Sc diur, vesp As op]
+27.5 +24.0 81 +38 +38 очень
душно
1001.8 1001.2
00 11.08 штиль 0 5000 м 8/4 540 м
[Sc diur, vesp As op]
+27.0 +25.0 89 +39 +39 очень
душно
1001.3 1000.7
03 11.08 штиль 0 6000 м 8/4 540 м
[Sc diur, vesp As op]
+29.2 +26.0 83 +44 +49 опасность
перегрева
1001.5 1000.9 +25.5
06 11.08 В 2 6000 м 5/4 540 м
[Sc diur, vesp As op]
+31.6 +26.0 72 +47 +59 опасность
перегрева
1001.1 1000.5
12 11.08 ЮВ 1 6000 м 6/4 540 м
[Sc diur, vesp As op]
+28.2 +25.0 83 +41 +41 опасность
перегрева
999.7 999.1 +33.0
15 11.08 штиль 0 5000 м 6/4 540 м
[Sc diur, vesp As op]
+28.0 +25.0 84 +40 +40 очень
душно
1000.5 999.9
21 11.08 штиль 0 5000 м 6/4 540 м
[Sc diur, vesp As op]
+27.0 +25.0 89 +39 +39 очень
душно
999.1 998.5
00 12.08 штиль 0 5000 м 6/4 540 м
[Sc diur, vesp As op]
+27.2 +25.0 88 +39 +39 очень
душно
999.2 998.6
03 12.08 СЗ 1 6000 м 5/4 540 м
[Sc diur, vesp As op]
+30.5 +25.0 73 +44 +52 опасность
перегрева
999.5 998.9 +25.8
06 12.08 ЮВ 1 6000 м 5/3 540 м
[Sc diur, vesp As op]
+31.2 +24.0 66 +43 +58 опасность
перегрева
999.6 999.0
21 12.08 штиль 0 5000 м 8/5 540 м
[Sc diur, vesp As op]
+26.7 +23.0 80 +36 +36 очень
душно
999.7 999.1
00 13.08 СВ 1 5000 м 10/4 540 м
[Sc diur, vesp As op]
+27.0 +25.0 89 +39 +39 очень
душно
998.0 997.4
03 13.08 штиль 0 6000 м 10/4 540 м
[Sc diur, vesp As op]
+29.0 +27.0 89 +46 +48 опасность
перегрева
998.3 997.7 +25.4
03 14.08 С 2 6000 м 8/5 540 м
[Sc diur, vesp As op]
+29.5 +25.0 77 +43 +46 опасность
перегрева
998.0 997.4 +25.0
12 14.08 С 3 6000 м в посл. час дождь 10/5 540 м
[Sc diur, vesp As op]
+26.4 +25.0 92 +38 +38 очень
душно
997.1 996.5 +30.2
15 14.08 СВ 1 5000 м 8/5 540 м
[Sc diur, vesp As op]
+26.0 +24.0 89 +36 +36 очень
душно
998.4 997.8
18 14.08 В 1 5000 м 8/5 540 м
[Sc diur, vesp As op]
+26.4 +24.0 87 +37 +37 очень
душно
999.7 999.1
00 15.08 ЮВ 1 5000 м 8/5 540 м
[Sc diur, vesp As op]
+26.5 +24.0 86 +37 +37 очень
душно
1000.4 999.8
03 15.08 С 2 6000 м 8/5 540 м
[Sc diur, vesp As op]
+29.0 +26.0 84 +44 +47 опасность
перегрева
1001.3 1000.7 +25.5

 

Местоположение метеостанции Teknaf (Бангладеш): широта 20.87 долгота 92.30 высота над уровнем моря 6 м.

В архиве по умолчанию представлена погода в Teknaf за последнюю неделю. Архивные данные за месяц целиком и за предыдущие месяцы, начиная с января 2011 года, Вы можете получить, выбрав интересующий диапазон дат из раскрывающегося списка и нажав кнопку "Ввод!".


*Определитесь, кто Вы:
робот инопланетянин человек

Внимание! Время в таблицах - всемирное. Для получения местного времени необходимо прибавить поправку, которая в Teknaf равна 6.5 ч.

Смотрите также архив погоды в соседних городах и на ближайших метеорологических станциях:

Погода в Kyauktaw (Мьянма) (34 км)
Погода в Coxs Bazar (Бангладеш) (73 км)
Погода в Sittwe (Мьянма) (102 км)
Погода в Kutubdia (Бангладеш) (115 км)
Погода в Chittagong (Бангладеш) (163 км)
Погода в Mindat (Мьянма) (180 км)
Погода в Rangamati (Бангладеш) (185 км)
Погода в Sitakundu (Бангладеш) (200 км)
Погода в Sandwip (Бангладеш) (200 км)
Погода в Kyaukpyu (Мьянма) (207 км)

Пояснения к столбцам:

Ветер - указаны скорость ветра в м/с - средняя за 10 мин, порывы в срок и между сроками (в фигурных скобках) и направление, откуда дует ветер: С - северный, СВ - северо-восточный, В - восточный, ЮВ - юго-восточный, Ю - южный, ЮЗ - юго-западный, З - западный, СЗ - северо-западный.
Видимость - горизонтальная дальность видимости в метрах или километрах. При видимости от 1 до 10 км при отсутствии осадков обычно наблюдается дымка, при ухудшении видимости до 1 км и менее - туман. В сухую погоду видимость может ухудшаться дымом, пылью или мглою.
Явления - указаны атмосферные явления, наблюдавшиеся в срок или в последний час перед сроком; фигурными скобками обозначены явления, наблюдавшиеся между сроками (за 1-3 часа до срока); квадратными скобками обозначены град или гололедные отложения с указанием их диаметра в мм.
Облачность - указаны через наклонную черту общая и нижняя облачность в баллах и высота нижней границы облаков в метрах; квадратными скобками обозначены формы облаков: Ci - перистые, Cs - перисто-слоистые, Cc - перисто-кучевые, Ac - высококучевые, As - высокослоистые, Sc - слоисто-кучевые, Ns - слоисто-дождевые, Cu - кучевые, Cb - кучево-дождевые. Подробнее классификацию облаков см. в Атласе облаков (PDF).
T - Температура воздуха - температура, измеренная на высоте 2 м над землей.
Td - Температура точки росы - температура, при понижении до которой содержащийся в воздухе водяной пар достигнет насыщения.
f - Относительная влажность воздуха - влажноcть воздуха, измеренная на высоте 2 м над землей.
Te - Эффективная температура - температура, которую ощущает одетый по сезону человек в тени. Характеристика душности погоды. При расчете учитывается влияние влажности воздуха и скорости ветра на теплоощущения человека.
Tes - Эффективная температура на солнце - температура, которую ощущает человек, с поправкой на солнечный нагрев. Характеристика знойности погоды. Зависит от высоты солнца над горизонтом, облачности и скорости ветра. Ночью, в пасмурную погоду, а также при ветре 12 м/с и более поправка равна нулю.
P - Атмосферное давление - приведенное к уровню моря атмосферное давление.
Po - Атмосферное давление - измеренное на уровне метеостанции атмосферное давление.
Tmin - Минимальная температура - минимум температуры воздуха на высоте 2 м над землей.
Tmax - Максимальная температура - максимум температуры воздуха на высоте 2 м над землей.
R - Количество осадков - Количество выпавших осадков за период времени, мм. При наведении курсора мыши на число - период времени, за который выпало указанное количество осадков.
R24 - Количество осадков - Количество выпавших осадков за 24 часа, мм.
S - Снежный покров - Высота снежного покрова, см. При наведении курсора мыши на число - состояние снежного покрова и степень покрытия местности в баллах.